Location: Bu�n Treun
(12.1333°N, 108.3167°E)
Time: 00:30:04
(UTC+00:00)

CZ-4B R/B - Pass Details

Date: 13 July 2020
Orbit: 391 x 465 km, 97.6° (Epoch: 03 August)

Event Time Altitude Azimuth Distance (km) Brightness Sun altitude
Rises 21:20:13 0° 168° (SSE) 2,445 5.0 -16.2°
Reaches altitude 10° 21:22:13 10° 167° (SSE) 1,584 4.0 -15.8°
Maximum altitude 21:25:38 87° 79° (ENE) 463 1.4 -15.0°
Drops below altitude 10° 21:29:05 10° 350° (N) 1,607 4.4 -14.3°
Sets 21:31:08 0° 350° (N) 2,485 5.4 -13.8°
